Owatonna, MN

7:58 AM CDT on May 24, 2017 (GMT -0500)
Owatonna Degner Regional

Weather History for KOWA - February, 2012

Change the Weather History Date:

Monday, February 13, 2012

  Actual Average Record
Temperature  
Mean Temperature 24 °F -  
Max Temperature 30 °F 28 °F 55 °F (1990)
Min Temperature 17 °F 9 °F -22 °F (1971)
Degree Days  
Heating Degree Days 42    
Moisture  
Dew Point 19 °F    
Average Humidity 74    
Maximum Humidity 100    
Minimum Humidity 50    
Precipitation  
Precipitation 0.01 in - - ()
Sea Level Pressure  
Sea Level Pressure 29.86 in    
Wind  
Wind Speed 9 mph (SSE)    
Max Wind Speed 14 mph    
Max Gust Speed 17 mph    
Visibility 7 miles    
Events Snow    
Averages and records for this station are not official NWS values.
T = Trace of Precipitation, MM = Missing Value Source: NWS Daily Summary

Daily Weather History Graph

Daily Weather History Graph

Search for Another Location

Airport or City:

Trip Planner

Search our weather history database for the weather conditions in past years. The results will help you decide how hot, cold, wet, or windy it might be!

Date:

Astronomy

Feb. 13, 2012 Rise Set
Actual Time 7:15 AM CST 5:39 PM CST
Civil Twilight 6:46 AM CST 6:09 PM CST
Nautical Twilight 6:12 AM CST 6:43 PM CST
Astronomical Twilight 5:38 AM CST 7:16 PM CST
Moon No Moon Rise 9:58 AM CST (2/13)
Length of Visible Light 11h 22m
Length of Day
10h 23m
Waning Gibbous, 61% of the Moon is Illuminated
Feb 13
Waning Gibbous
Feb 14
Last Quarter
Feb 21
New
Feb 29
First Quarter
Mar 8
Full

Hourly Weather History & Observations

Time (CST) Temp. Windchill Dew Point Humidity Pressure Visibility Wind Dir Wind Speed Gust Speed Precip Events Conditions
12:14 AM 17.6 °F 7.3 °F 6.8 °F 63% 30.05 in 10.0 mi SSE 8.1 mph - N/A   Clear
12:34 AM 17.6 °F 6.4 °F 6.8 °F 63% 30.05 in 10.0 mi SSE 9.2 mph - N/A   Clear
12:54 AM 17.6 °F 6.4 °F 6.8 °F 63% 30.04 in 10.0 mi SSE 9.2 mph - N/A   Clear
1:14 AM 19.4 °F 7.2 °F 5.0 °F 54% 30.03 in 10.0 mi SSE 11.5 mph - N/A   Clear
1:34 AM 19.4 °F 7.2 °F 6.8 °F 58% 30.02 in 10.0 mi SSE 11.5 mph - N/A   Clear
1:54 AM 19.4 °F 6.6 °F 6.8 °F 58% 30.02 in 10.0 mi SSE 12.7 mph - N/A   Scattered Clouds
2:14 AM 21.2 °F 8.9 °F 6.8 °F 54% 30.01 in 10.0 mi SSE 12.7 mph - N/A   Overcast
2:34 AM 21.2 °F 8.9 °F 6.8 °F 54% 30.00 in 10.0 mi SSE 12.7 mph - N/A   Overcast
2:54 AM 21.2 °F 10.1 °F 6.8 °F 54% 29.99 in 10.0 mi SSE 10.4 mph - N/A   Overcast
3:14 AM 21.2 °F 10.1 °F 6.8 °F 54% 29.98 in 10.0 mi SSE 10.4 mph - N/A   Overcast
3:54 AM 23.0 °F 11.7 °F 8.6 °F 54% 29.96 in 10.0 mi SSE 11.5 mph - N/A   Overcast
4:14 AM 23.0 °F - 8.6 °F 54% 29.95 in 10.0 mi Calm Calm - N/A   Overcast
4:34 AM 24.8 °F 14.0 °F 8.6 °F 50% 29.95 in 10.0 mi SSE 11.5 mph - N/A   Overcast
4:54 AM 24.8 °F 14.0 °F 10.4 °F 54% 29.95 in 10.0 mi SSE 11.5 mph - N/A   Overcast
5:14 AM 24.8 °F 14.6 °F 10.4 °F 54% 29.94 in 10.0 mi SSE 10.4 mph - N/A   Overcast
5:34 AM 24.8 °F 14.0 °F 10.4 °F 54% 29.94 in 10.0 mi SSE 11.5 mph - N/A   Overcast
5:54 AM 24.8 °F 14.0 °F 10.4 °F 54% 29.92 in 10.0 mi SSE 11.5 mph - N/A   Overcast
6:14 AM 24.8 °F 14.0 °F 10.4 °F 54% 29.92 in 10.0 mi SSE 11.5 mph - N/A   Overcast
6:34 AM 24.8 °F 15.3 °F 10.4 °F 54% 29.91 in 10.0 mi SSE 9.2 mph - N/A   Overcast
6:54 AM 26.6 °F 16.8 °F 10.4 °F 51% 29.91 in 10.0 mi SSE 10.4 mph - N/A   Overcast
7:14 AM 26.6 °F 17.5 °F 10.4 °F 51% 29.90 in 10.0 mi SSE 9.2 mph - N/A   Overcast
7:34 AM 26.6 °F 17.5 °F 12.2 °F 55% 29.90 in 10.0 mi SSE 9.2 mph - N/A   Overcast
7:54 AM 26.6 °F 16.2 °F 12.2 °F 55% 29.90 in 10.0 mi SSE 11.5 mph - N/A   Overcast
8:14 AM 26.6 °F 18.2 °F 12.2 °F 55% 29.90 in 10.0 mi SSE 8.1 mph - N/A   Overcast
8:34 AM 26.6 °F 18.2 °F 14.0 °F 59% 29.89 in 10.0 mi South 8.1 mph - N/A   Overcast
8:54 AM 26.6 °F 17.5 °F 14.0 °F 59% 29.89 in 10.0 mi South 9.2 mph - N/A   Mostly Cloudy
9:14 AM 28.4 °F 22.2 °F 14.0 °F 55% 29.90 in 10.0 mi South 5.8 mph - N/A   Mostly Cloudy
9:34 AM 28.4 °F 20.4 °F 15.8 °F 59% 29.89 in 10.0 mi South 8.1 mph - N/A   Mostly Cloudy
9:55 AM 28.4 °F 19.1 °F 15.8 °F 59% 29.88 in 10.0 mi South 10.4 mph - N/A   Overcast
10:14 AM 28.4 °F 17.5 °F 21.2 °F 74% 29.87 in 10.0 mi South 13.8 mph - N/A   Overcast
10:34 AM 28.4 °F 19.1 °F 24.8 °F 86% 29.87 in 4.0 mi South 10.4 mph 17.3 mph N/A Snow Light Snow
10:54 AM 28.4 °F 19.1 °F 24.8 °F 86% 29.86 in 4.0 mi South 10.4 mph 17.3 mph N/A Snow Light Snow
11:14 AM 28.4 °F 19.7 °F 24.8 °F 86% 29.85 in 2.0 mi South 9.2 mph - N/A Snow Light Snow
11:34 AM 28.4 °F 19.7 °F 24.8 °F 86% 29.85 in 2.5 mi South 9.2 mph 16.1 mph N/A Snow Light Snow
11:54 AM 28.4 °F 18.5 °F 24.8 °F 86% 29.83 in 3.0 mi South 11.5 mph - N/A Snow Light Snow
12:14 PM 28.4 °F 18.5 °F 24.8 °F 86% 29.83 in 5.0 mi South 11.5 mph - N/A Snow Light Snow
12:34 PM 28.4 °F 19.1 °F 26.6 °F 93% 29.81 in 10.0 mi SSE 10.4 mph - N/A Snow Light Snow
12:54 PM 28.4 °F 18.5 °F 26.6 °F 93% 29.80 in 10.0 mi South 11.5 mph - N/A   Scattered Clouds
1:14 PM 28.4 °F 19.1 °F 26.6 °F 93% 29.79 in 10.0 mi SSE 10.4 mph - N/A   Scattered Clouds
1:34 PM 30.2 °F 22.6 °F 26.6 °F 86% 29.79 in 2.5 mi SSE 8.1 mph - N/A   Mostly Cloudy
1:54 PM 30.2 °F 20.8 °F 26.6 °F 86% 29.78 in 2.5 mi SSE 11.5 mph - N/A Snow Light Snow
2:14 PM 28.4 °F 20.4 °F 26.6 °F 93% 29.77 in 1.8 mi SSE 8.1 mph - N/A Snow Light Snow
2:34 PM 30.2 °F 21.3 °F 26.6 °F 86% 29.77 in 3.0 mi SSE 10.4 mph - N/A Snow Light Snow
2:54 PM 30.2 °F 23.4 °F 26.6 °F 86% 29.77 in 3.0 mi SSE 6.9 mph - N/A Snow Light Snow
3:14 PM 28.4 °F 19.1 °F 26.6 °F 93% 29.76 in 3.0 mi South 10.4 mph - N/A Snow Light Snow
3:34 PM 30.2 °F 22.6 °F 26.6 °F 86% 29.76 in 2.5 mi SSE 8.1 mph - N/A   Overcast
3:54 PM 30.2 °F 21.3 °F 26.6 °F 86% 29.75 in 1.5 mi SSE 10.4 mph - N/A   Overcast
4:14 PM 28.4 °F 20.4 °F 26.6 °F 93% 29.74 in 2.0 mi SSE 8.1 mph - N/A   Overcast
4:34 PM 30.2 °F 21.9 °F 26.6 °F 86% 29.74 in 3.0 mi SSE 9.2 mph - N/A   Overcast
4:54 PM 28.4 °F 21.2 °F 26.6 °F 93% 29.74 in 4.0 mi SSE 6.9 mph - N/A   Overcast
5:14 PM 28.4 °F 21.2 °F 26.6 °F 93% 29.74 in 2.0 mi SSE 6.9 mph - N/A   Overcast
5:54 PM 28.4 °F 22.2 °F 26.6 °F 93% 29.73 in 2.5 mi SSE 5.8 mph - N/A   Overcast
6:14 PM 28.4 °F 22.2 °F 26.6 °F 93% 29.74 in 2.5 mi SSE 5.8 mph - 0.01 in   Overcast
6:33 PM 28.4 °F 23.3 °F 28.4 °F 100% 29.73 in 2.0 mi SSE 4.6 mph - 0.01 in   Overcast
6:54 PM 28.4 °F 23.3 °F 28.4 °F 100% 29.73 in 2.5 mi SSE 4.6 mph - 0.01 in Snow Light Snow
7:14 PM 28.4 °F 22.2 °F 28.4 °F 100% 29.73 in 2.5 mi SSE 5.8 mph - N/A Snow Light Snow
7:34 PM 28.4 °F 22.2 °F 28.4 °F 100% 29.73 in 2.5 mi SSE 5.8 mph - N/A Snow Light Snow
7:53 PM 28.4 °F 21.2 °F 28.4 °F 100% 29.73 in 4.0 mi SSE 6.9 mph - N/A Snow Light Snow
8:14 PM 28.4 °F 22.2 °F 28.4 °F 100% 29.73 in 4.0 mi SSE 5.8 mph - N/A   Overcast
8:34 PM 28.4 °F 22.2 °F 26.6 °F 93% 29.72 in 3.0 mi South 5.8 mph - N/A Snow Light Snow
8:53 PM 28.4 °F 24.6 °F 26.6 °F 93% 29.72 in 3.0 mi SSE 3.5 mph - N/A Snow Light Snow
9:14 PM 28.4 °F - 26.6 °F 93% 29.72 in 4.0 mi Calm Calm - N/A Snow Light Snow
9:33 PM 28.4 °F 23.3 °F 26.6 °F 93% 29.71 in 5.0 mi South 4.6 mph - N/A Snow Light Snow
9:53 PM 28.4 °F 23.3 °F 26.6 °F 93% 29.72 in 5.0 mi South 4.6 mph - N/A Snow Light Snow
10:14 PM 28.4 °F 23.3 °F 26.6 °F 93% 29.72 in 7.0 mi South 4.6 mph - N/A   Mostly Cloudy
10:34 PM 28.4 °F 23.3 °F 26.6 °F 93% 29.72 in 4.0 mi South 4.6 mph - N/A Snow Light Snow
10:54 PM 28.4 °F 23.3 °F 26.6 °F 93% 29.72 in 4.0 mi South 4.6 mph - N/A Snow Light Snow
11:13 PM 28.4 °F 23.3 °F 26.6 °F 93% 29.71 in 4.0 mi South 4.6 mph - N/A Snow Light Snow
11:34 PM 28.4 °F 23.3 °F 26.6 °F 93% 29.71 in 4.0 mi South 4.6 mph - N/A Snow Light Snow
11:53 PM 26.6 °F 21.2 °F 26.6 °F 100% 29.70 in 5.0 mi South 4.6 mph - N/A   Scattered Clouds